TimeEST,TemperatureF,Dew PointF,Humidity,Sea Level PressureIn,VisibilityMPH,Wind Direction,Wind SpeedMPH,Gust SpeedMPH,PrecipitationIn,Events,Conditions,WindDirDegrees,DateUTC
12:53 AM,32.0,25.0,75,30.20,10.0,Calm,Calm,-,N/A,,Mostly Cloudy,0,2012-11-04 04:53:00
1:53 AM,33.1,26.1,75,30.20,10.0,NNE,3.5,-,N/A,,Overcast,30,2012-11-04 05:53:00
1:53 AM,30.0,24.1,79,30.19,10.0,Calm,Calm,-,N/A,,Mostly Cloudy,0,2012-11-04 06:53:00
2:53 AM,30.0,24.1,79,30.18,10.0,NNE,3.5,-,N/A,,Clear,20,2012-11-04 07:53:00
3:53 AM,21.9,17.1,82,30.19,10.0,Calm,Calm,-,N/A,,Clear,0,2012-11-04 08:53:00
4:53 AM,23.0,19.9,88,30.21,10.0,North,3.5,-,N/A,,Clear,350,2012-11-04 09:53:00
5:53 AM,26.1,23.0,88,30.21,10.0,NW,3.5,-,N/A,,Overcast,320,2012-11-04 10:53:00
6:51 AM,23.0,19.4,86,30.18,10.0,Calm,Calm,-,N/A,,Mostly Cloudy,0,2012-11-04 11:51:00
6:53 AM,23.0,19.9,88,30.21,10.0,Calm,Calm,-,N/A,,Mostly Cloudy,0,2012-11-04 11:53:00
7:53 AM,30.9,26.1,82,30.23,10.0,NNW,6.9,-,N/A,,Overcast,330,2012-11-04 12:53:00
8:53 AM,33.1,25.0,72,30.23,10.0,North,5.8,-,N/A,,Overcast,350,2012-11-04 13:53:00
9:53 AM,36.0,26.1,67,30.22,10.0,NNW,8.1,-,N/A,,Overcast,340,2012-11-04 14:53:00
10:53 AM,37.0,25.0,62,30.21,10.0,North,6.9,-,N/A,,Overcast,360,2012-11-04 15:53:00
11:29 AM,37.4,24.8,60,30.18,10.0,NNW,4.6,-,N/A,,Overcast,340,2012-11-04 16:29:00
11:53 AM,37.9,25.0,60,30.21,10.0,Variable,5.8,-,N/A,,Overcast,0,2012-11-04 16:53:00
12:53 PM,39.0,24.1,55,30.20,10.0,Calm,Calm,-,N/A,,Overcast,0,2012-11-04 17:53:00
1:53 PM,39.9,26.1,58,30.19,10.0,North,5.8,-,N/A,,Overcast,360,2012-11-04 18:53:00
2:53 PM,41.0,25.0,53,30.18,10.0,Variable,4.6,-,N/A,,Mostly Cloudy,0,2012-11-04 19:53:00
3:53 PM,39.9,25.0,55,30.18,10.0,ENE,3.5,-,N/A,,Overcast,70,2012-11-04 20:53:00
4:53 PM,39.0,25.0,57,30.18,10.0,North,5.8,-,N/A,,Mostly Cloudy,360,2012-11-04 21:53:00
5:53 PM,37.0,24.1,59,30.19,10.0,North,8.1,-,N/A,,Overcast,360,2012-11-04 22:53:00
6:53 PM,35.1,24.1,64,30.20,10.0,Calm,Calm,-,N/A,,Scattered Clouds,0,2012-11-04 23:53:00
7:53 PM,36.0,25.0,64,30.19,10.0,NW,5.8,-,N/A,,Overcast,320,2012-11-05 00:53:00
8:53 PM,35.1,25.0,67,30.20,10.0,NNW,5.8,-,N/A,,Overcast,330,2012-11-05 01:53:00
9:53 PM,34.0,24.1,67,30.20,10.0,North,5.8,-,N/A,,Overcast,350,2012-11-05 02:53:00
10:53 PM,24.1,21.0,88,30.20,10.0,Calm,Calm,-,N/A,,Clear,0,2012-11-05 03:53:00